Weather reports worldwide

Advertisment
Grosseto, Italy (16206): temperature & dewpoint: 17.03.2019 10:00:00 - 23.03.2019 10:00:00 (CET)Grosseto, Italy (16206): wind speed: 17.03.2019 10:00:00 - 23.03.2019 10:00:00 (CET)Grosseto, Italy (16206): wind direction: 17.03.2019 10:00:00 - 23.03.2019 10:00:00 (CET)Grosseto, Italy (16206): reduced air pressure: 17.03.2019 10:00:00 - 23.03.2019 10:00:00 (CET)Grosseto, Italy (16206): visibility: 17.03.2019 10:00:00 - 23.03.2019 10:00:00 (CET)
Date & Time tt [°C] td [°C] ff [km/h] ff [kn] dd ppp [hPa] vv [km]
23.03.2019 10:00:00 19,2 4,9 13 7 ENE 1023,1 25
23.03.2019 09:00:00 15,0 4,4 9 5 NE 1023,3 20
23.03.2019 08:00:00 11,0 4,0 2 1 NE 1023,4 20
23.03.2019 07:00:00 8,0 1,4 5 3 NE 1023,0 20
23.03.2019 06:00:00 8,2 2,4 5 3 E 1023,0 20
23.03.2019 05:00:00 8,0 2,7 5 3 NNE 1023,0 20
23.03.2019 04:00:00 7,0 1,9 8 4 ENE 1023,2 20
23.03.2019 03:00:00 7,8 2,7 9 5 NE 1023,2 20
23.03.2019 02:00:00 8,8 3,0 8 4 ENE 1023,7 20
23.03.2019 01:00:00 9,0 3,6 4 2 N 1023,9 20
23.03.2019 00:00:00 8,2 3,7 9 5 NE 1024,1 20
22.03.2019 23:00:00 10,0 4,8 4 2 N 1024,3 20
22.03.2019 22:00:00 10,6 6,4 13 7 NNW 1024,4 20
22.03.2019 21:00:00 10,2 5,6 11 6 N 1024,1 20
22.03.2019 20:00:00 11,0 6,7 8 4 NE 1023,9 20
22.03.2019 19:00:00 13,4 8,1 4 2 SE 1023,6 50
22.03.2019 18:00:00 16,0 8,7 9 5 SW 1023,4 50
22.03.2019 17:00:00 18,4 6,9 21 11 SW 1023,6 50
22.03.2019 16:00:00 19,8 6,2 22 12 SW 1024,1 50
22.03.2019 15:00:00 20,4 5,6 24 13 WSW 1024,5 50
22.03.2019 14:00:00 21,8 4,8 8 4 WNW 1025,1 50
22.03.2019 13:00:00 20,8 4,0 9 5 NNE 1025,5 50
22.03.2019 12:00:00 19,4 4,0 11 6 NNE 1026,2 50
22.03.2019 11:00:00 18,8 3,8 9 5 NE 1026,6 50
22.03.2019 10:00:00 16,8 3,8 13 7 NE 1026,5 50
22.03.2019 09:00:00 14,0 4,6 5 3 N 1026,5 35
22.03.2019 08:00:00 10,6 3,9 4 2 NNE 1026,5 30
22.03.2019 07:00:00 5,0 -1,5 4 2 NW 1026,2 25
22.03.2019 06:00:00 8,6 1,1 2 1 N 1025,9 20
22.03.2019 05:00:00 8,8 1,0 5 3 NNW 1025,9 15
22.03.2019 04:00:00 9,4 0,6 2 1 WSW 1025,9 15
22.03.2019 03:00:00 10,4 1,0 5 3 NNE 1025,9 15
22.03.2019 02:00:00 10,4 -0,1 4 2 ESE 1026,0 15
22.03.2019 01:00:00 11,4 0,5 13 7 NNE 1025,9 15
22.03.2019 00:00:00 10,0 -0,8 9 5 NNE 1025,9 20
21.03.2019 23:00:00 10,8 0,2 13 7 NNE 1025,8 20
21.03.2019 22:00:00 12,8 0,5 18 10 N 1024,9 20
21.03.2019 21:00:00 13,0 -0,3 16 9 N 1024,9 20
21.03.2019 20:00:00 15,0 0,8 24 13 N 1024,8 20
21.03.2019 19:00:00 20,8 5,6 18 10 NE 1024,4 20
21.03.2019 18:00:00 19,0 2,8 26 14 NNE 1023,8 20
21.03.2019 17:00:00 19,4 3,1 29 16 NNE 1023,7 20
21.03.2019 16:00:00 20,4 4,0 26 14 NNE 1023,7 20
21.03.2019 15:00:00 20,8 4,0 29 16 NNE 1023,9 50
21.03.2019 14:00:00 19,0 4,0 29 16 NE 1024,6 10
21.03.2019 13:00:00 19,0 3,6 29 16 NNE 1024,9 20
21.03.2019 12:00:00 18,0 3,9 28 15 NNE 1025,7 50
21.03.2019 11:00:00 17,0 5,0 21 11 NNE 1026,0 20
21.03.2019 10:00:00 14,0 3,5 21 11 NNE 1026,0 20
21.03.2019 09:00:00 12,0 2,5 21 11 NNE 1026,0 30
21.03.2019 08:00:00 9,2 1,4 22 12 NNE 1025,9 40
21.03.2019 07:00:00 8,2 0,7 21 11 NNE 1025,1 30
21.03.2019 06:00:00 8,0 -0,5 18 10 N 1025,1 30
21.03.2019 05:00:00 7,6 -0,6 22 12 N 1025,2 25
21.03.2019 04:00:00 8,0 -2,6 15 8 N 1025,2 25
21.03.2019 03:00:00 7,8 -2,8 26 14 N 1025,3 25
21.03.2019 02:00:00 7,6 -3,6 24 13 N 1025,9 25
21.03.2019 01:00:00 7,6 -3,6 18 10 N 1026,1 25
21.03.2019 00:00:00 7,4 -4,0 21 11 N 1026,1 25
20.03.2019 23:00:00 7,4 -4,4 21 11 N 1026,0 25
20.03.2019 22:00:00 7,8 -4,6 22 12 N 1026,0 25
20.03.2019 21:00:00 8,4 -4,7 22 12 N 1026,0 25
20.03.2019 20:00:00 9,6 -4,4 24 13 NNE 1025,9 20
20.03.2019 19:00:00 11,0 -3,5 24 13 NNE 1025,0 25
20.03.2019 18:00:00 12,8 -1,9 29 16 NNE 1024,2 35
20.03.2019 17:00:00 14,4 -0,1 29 16 NNE 1023,9 35
20.03.2019 16:00:00 15,6 1,0 34 18 NNE 1023,8 35
20.03.2019 15:00:00 16,0 1,3 34 18 NE 1023,8 35
20.03.2019 14:00:00 16,4 1,7 39 21 NNE 1023,9 35
20.03.2019 13:00:00 16,0 1,7 35 19 NNE 1024,1 35
20.03.2019 12:00:00 15,4 2,2 39 21 NNE 1024,1 35
20.03.2019 11:00:00 14,2 1,8 28 15 NE 1024,2 30
20.03.2019 10:00:00 13,0 2,3 37 20 NE 1024,0 30
20.03.2019 09:00:00 10,6 1,9 37 20 NE 1023,9 20
20.03.2019 08:00:00 9,4 1,6 31 17 NE 1023,1 20
20.03.2019 07:00:00 8,0 0,7 39 21 NE 1022,7 20
20.03.2019 06:00:00 6,0 -1,0 35 19 NNE 1022,0 15
20.03.2019 05:00:00 6,0 -1,2 22 12 NNE 1022,0 10
20.03.2019 04:00:00 6,0 -0,3 22 12 NNE 1022,0 10
20.03.2019 03:00:00 - - - - - - -
20.03.2019 02:00:00 6,6 -0,2 22 12 N 1022,0 10
20.03.2019 01:00:00 6,6 -0,2 29 16 NNE 1021,9 10
20.03.2019 00:00:00 7,0 -0,2 22 12 N 1021,8 10
19.03.2019 23:00:00 7,0 0,2 28 15 NNE 1021,8 10
19.03.2019 22:00:00 7,2 0,2 24 13 NNE 1021,7 10
19.03.2019 21:00:00 8,0 0,3 24 13 NNE 1021,3 10
19.03.2019 20:00:00 8,6 0,6 24 13 NNE 1020,9 50
19.03.2019 19:00:00 9,4 0,3 18 10 NNE 1020,4 10
19.03.2019 18:00:00 11,4 1,1 28 15 NNE 1019,4 50
19.03.2019 17:00:00 12,8 1,8 31 17 NNE 1018,8 50
19.03.2019 16:00:00 13,8 2,1 29 16 NNE 1018,3 50
19.03.2019 15:00:00 14,2 3,1 29 16 NNE 1018,2 50
19.03.2019 14:00:00 13,6 3,7 28 15 NNE 1018,3 40
19.03.2019 13:00:00 12,0 3,0 24 13 NNE 1018,8 40
19.03.2019 12:00:00 11,2 4,4 21 11 NNE 1018,8 40
19.03.2019 11:00:00 10,4 4,3 21 11 N 1017,4 40
19.03.2019 10:00:00 9,0 4,2 16 9 N 1018,1 20
19.03.2019 09:00:00 7,0 3,4 21 11 N 1017,8 10
19.03.2019 08:00:00 6,8 3,8 16 9 N 1017,2 10
19.03.2019 07:00:00 6,4 3,4 18 10 NNE 1016,9 9
19.03.2019 06:00:00 6,8 4,1 21 11 NNE 1015,9 10
19.03.2019 05:00:00 6,4 3,4 13 7 N 1015,9 10
19.03.2019 04:00:00 6,4 3,4 16 9 N 1015,4 10
19.03.2019 03:00:00 8,0 4,8 11 6 N 1015,5 10
19.03.2019 02:00:00 7,2 4,0 13 7 N 1015,5 10
19.03.2019 01:00:00 8,0 5,5 5 3 NNE 1015,2 10
19.03.2019 00:00:00 8,0 4,6 9 5 NNE 1015,1 10
18.03.2019 23:00:00 8,6 5,4 16 9 NNE 1014,9 10
18.03.2019 22:00:00 8,0 4,6 18 10 NNE 1014,9 10
18.03.2019 21:00:00 9,4 6,7 11 6 NNW 1014,9 10
18.03.2019 20:00:00 10,0 6,7 5 3 NNE 1014,1 10
18.03.2019 19:00:00 10,0 7,1 21 11 NE 1013,4 12
18.03.2019 18:00:00 12,0 8,1 9 5 NE 1012,9 12
18.03.2019 17:00:00 12,8 8,3 9 5 ENE 1012,1 15
18.03.2019 16:00:00 14,0 10,2 9 5 ENE 1012,1 12
18.03.2019 15:00:00 13,0 10,0 15 8 ENE 1012,5 10
18.03.2019 14:00:00 10,6 8,7 13 7 NNE 1012,5 8
18.03.2019 13:00:00 10,4 6,4 15 8 N 1012,8 6
18.03.2019 12:00:00 11,4 7,1 18 10 N 1012,4 8
18.03.2019 11:00:00 16,8 13,3 22 12 SE 1012,0 15
18.03.2019 10:00:00 13,4 10,4 16 9 SE 1012,0 12
18.03.2019 09:00:00 12,4 9,6 8 4 SSE 1012,0 30
18.03.2019 08:00:00 11,6 9,7 9 5 SE 1011,9 20
18.03.2019 07:00:00 10,0 8,8 9 5 SE 1011,5 15
18.03.2019 06:00:00 9,0 6,1 9 5 SE 1011,7 15
18.03.2019 05:00:00 11,0 8,4 8 4 ESE 1012,1 8
18.03.2019 04:00:00 11,0 8,7 8 4 SE 1012,3 8
18.03.2019 03:00:00 11,0 8,6 8 4 SSE 1012,7 8
18.03.2019 02:00:00 11,0 8,6 8 4 SSE 1013,2 8
18.03.2019 01:00:00 11,4 8,4 11 6 SSE 1013,9 8
18.03.2019 00:00:00 11,0 9,1 9 5 SE 1013,9 8
17.03.2019 23:00:00 11,4 9,5 11 6 SSE 1013,9 8
17.03.2019 22:00:00 11,0 9,1 9 5 SE 1013,9 8
17.03.2019 21:00:00 9,8 8,2 8 4 SE 1013,9 10
17.03.2019 20:00:00 13,2 9,8 5 3 SSE 1014,7 10
17.03.2019 19:00:00 13,4 10,0 5 3 SSW 1014,9 10
17.03.2019 18:00:00 13,6 9,3 8 4 SW 1015,0 15
17.03.2019 17:00:00 13,6 9,5 11 6 SW 1015,6 15
17.03.2019 16:00:00 14,0 9,8 18 10 SSW 1015,9 15
17.03.2019 15:00:00 14,0 8,6 18 10 S 1016,4 15
17.03.2019 14:00:00 14,0 9,8 22 12 SSW 1016,7 15
17.03.2019 13:00:00 14,0 8,6 22 12 S 1017,2 10
17.03.2019 12:00:00 14,0 9,8 18 10 S 1017,9 10
17.03.2019 11:00:00 14,8 9,2 15 8 S 1017,9 10
17.03.2019 10:00:00 14,0 8,6 16 9 SE 1018,0 10

tt = temperature
td = dewpoint
ff = wind speed
dd = wind direction
ppp = reduced air pressure
vv = visibility

Next stations